Simultaneous Nadir Overpasses (SNOs) Predictions

Prediction of SNOs between NOAA-15 and METOP-C Satellite Orbit:

Table of predicted SNOs for the next 14.0 days since TLE Epoch: 12/18/2021
Index Date (NOAA-15) Time (NOAA-15) Lat,Lon (NOAA-15) SZA (NOAA-15 ) Date (METOP-C) Time (METOP-C) Lat,Lon (METOP-C) SZA (METOP-C ) Distance(km) Time Diff (sec)
1 12/18/2021 16:00:34 -81.04, 157.73 73.74 12/18/2021 15:59:19 -81.02, 157.79 73.78 1.99 75
2 12/18/2021 16:51:06 81.03, -34.76 106.27 12/18/2021 16:50:00 81.03, -34.62 106.26 2.36 66
3 12/18/2021 17:41:36 -81.04, 132.50 73.74 12/18/2021 17:40:40 -81.03, 132.68 73.75 3.17 56
4 12/18/2021 18:32:08 81.03, -60.00 106.28 12/18/2021 18:31:22 81.03, -60.10 106.25 1.85 46
5 12/18/2021 19:22:38 -81.04, 107.26 73.74 12/18/2021 19:22:02 -81.03, 107.20 73.76 1.59 36
6 12/18/2021 20:13:10 81.03, -85.24 106.28 12/18/2021 20:12:43 81.04, -85.21 106.28 0.87 27
7 12/18/2021 21:03:40 -81.04, 82.02 73.73 12/18/2021 21:03:23 -81.04, 82.08 73.73 1.00 17
8 12/18/2021 21:54:13 81.05,-110.85 106.26 12/18/2021 21:54:05 81.03,-110.69 106.26 3.12 8
9 12/18/2021 22:44:42 -81.04, 56.79 73.73 12/18/2021 22:44:45 -81.03, 56.60 73.75 3.28 3
10 12/18/2021 23:35:14 81.03,-135.72 106.28 12/18/2021 23:35:26 81.04,-135.80 106.29 1.98 12
11 12/19/2021 00:25:44 -81.03, 31.55 73.73 12/19/2021 00:26:06 -81.04, 31.49 73.72 1.28 22
12 12/19/2021 01:16:17 81.05,-161.33 106.26 12/19/2021 01:16:48 81.04,-161.29 106.27 1.29 31
13 12/19/2021 02:06:47 -81.05, 5.95 73.75 12/19/2021 02:07:28 -81.03, 6.01 73.74 1.94 41
14 12/19/2021 02:57:19 81.04, 173.43 106.26 12/19/2021 02:58:09 81.05, 173.60 106.30 3.01 50
15 12/19/2021 03:47:49 -81.05, -19.28 73.75 12/19/2021 03:48:49 -81.04, -19.10 73.71 3.19 60



Historial Predications of SNOs between NOAA-15 and METOP-C
